Weather in Orosei

Italy     40°22′43″N   9°41′50″E
temp.,
°C
wind,
m/s
gust,
m/s
humid.,
%
clouds,
%
prec.,
mm/h
press.,
hPa
HPBL,
m
24 july, sat
sat2423:00+24sw23620 0.0 101558
02:00+24wsw22590 0.0 101428
05:00+24w11565 0.0 101314
08:00+27s11460 0.0 1013103
11:00+31sse44392 0.0 1013550
14:00+31sse67455 0.0 1012535
17:00+31sse68470 0.0 1011457
20:00+27sse46635 0.0 1012235
25 july, sun
sun2523:00+24s57813 0.0 1012196
02:00+24ssw58635 0.0 1010136
05:00+25sw334566 0.0 100946
08:00+28ssw223323 0.1 100964
11:00+32sse553873 0.0 1009531
14:00+35s61134100 0.0 10081359
17:00+34s8123721 0.0 10082029
20:00+30sse5856100 0.0 1008167
26 july, mon
mon2623:00+27sw456299 0.0 101097
02:00+26nw1156100 0.0 100918
05:00+25nnw3366100 0.1 101093
08:00+26nw2269100 0.1 1011180
11:00+30nne3150100 0.0 1012347
14:00+29e326199 0.0 1012476
17:00+30ene2260100 0.1 1013657
20:00+27sse1269100 0.3 101450
27 july, tue
tue2723:00+26ssw2273100 0.0 101532
02:00+25wsw227095 0.0 101547
05:00+26ssw2263100 0.0 101424
08:00+28s114898 0.0 101553
11:00+32sse34382 0.0 1014726
14:00+32sse564734 0.0 1014593
17:00+31sse365098 0.0 1013567
20:00+27e22743 0.0 1014208
28 july, wed
wed2823:00+24wnw11910 0.0 101412
02:00+24wnw11770 0.0 101428
05:00+23n22670 0.0 101364
08:00+26n01610 0.0 1015165
11:00+29e32500 0.0 1015569
14:00+29e43595 0.0 1014523
17:00+29e32570 0.0 1014458
20:00+27ene12650 0.0 1014119